Year,Month,Day,Hour,Minute,Value (Times are PST for temperature in C)
2017,10,28,00,00,10.80
2017,10,28,00,01,10.80
2017,10,28,00,02,10.80
2017,10,28,00,03,10.90
2017,10,28,00,04,10.90
2017,10,28,00,05,10.90
2017,10,28,00,06,10.90
2017,10,28,00,07,10.90
2017,10,28,00,08,11.00
2017,10,28,00,09,11.00
2017,10,28,00,10,11.00
2017,10,28,00,11,11.00
2017,10,28,00,12,10.90
2017,10,28,00,13,11.00
2017,10,28,00,14,11.00
2017,10,28,00,15,11.00
2017,10,28,00,16,11.00
2017,10,28,00,17,11.00
2017,10,28,00,18,11.10
2017,10,28,00,19,11.10
2017,10,28,00,20,11.10
2017,10,28,00,21,11.00
2017,10,28,00,22,11.00
2017,10,28,00,23,11.10
2017,10,28,00,24,11.10
2017,10,28,00,25,11.10
2017,10,28,00,26,11.20
2017,10,28,00,27,11.10
2017,10,28,00,28,11.10
2017,10,28,00,29,11.10
2017,10,28,00,30,11.10
2017,10,28,00,31,11.10
2017,10,28,00,32,11.10
2017,10,28,00,33,11.10
2017,10,28,00,34,11.10
2017,10,28,00,35,11.10
2017,10,28,00,36,11.10
2017,10,28,00,37,11.20
2017,10,28,00,38,11.20
2017,10,28,00,39,11.20
2017,10,28,00,40,11.20
2017,10,28,00,41,11.10
2017,10,28,00,42,11.10
2017,10,28,00,43,11.10
2017,10,28,00,44,11.10
2017,10,28,00,45,11.10
2017,10,28,00,46,11.10
2017,10,28,00,47,11.10
2017,10,28,00,48,11.10
2017,10,28,00,49,11.10
2017,10,28,00,50,11.10
2017,10,28,00,51,11.00
2017,10,28,00,52,11.00
2017,10,28,00,53,11.00
2017,10,28,00,54,11.00
2017,10,28,00,55,11.00
2017,10,28,00,56,11.00
2017,10,28,00,57,10.90
2017,10,28,00,58,10.90
2017,10,28,00,59,10.90
2017,10,28,01,00,10.80
2017,10,28,01,01,10.80
2017,10,28,01,02,10.80
2017,10,28,01,03,10.80
2017,10,28,01,04,10.80
2017,10,28,01,05,10.70
2017,10,28,01,06,10.70
2017,10,28,01,07,10.60
2017,10,28,01,08,10.60
2017,10,28,01,09,10.60
2017,10,28,01,10,10.60
2017,10,28,01,11,10.50
2017,10,28,01,12,10.40
2017,10,28,01,13,10.40
2017,10,28,01,14,10.30
2017,10,28,01,15,10.30
2017,10,28,01,16,10.30
2017,10,28,01,17,10.20
2017,10,28,01,18,10.20
2017,10,28,01,19,10.20
2017,10,28,01,20,10.10
2017,10,28,01,21,10.10
2017,10,28,01,22,10.10
2017,10,28,01,23,10.10
2017,10,28,01,24,10.10
2017,10,28,01,25,10.10
2017,10,28,01,26,10.10
2017,10,28,01,27,10.10
2017,10,28,01,28,10.00
2017,10,28,01,29,10.00
2017,10,28,01,30,10.00
2017,10,28,01,31,10.00
2017,10,28,01,32,10.00
2017,10,28,01,33,10.00
2017,10,28,01,34,10.00
2017,10,28,01,35,10.10
2017,10,28,01,36,10.10
2017,10,28,01,37,10.10
2017,10,28,01,38,10.10
2017,10,28,01,39,10.10
2017,10,28,01,40,10.10
2017,10,28,01,41,10.10
2017,10,28,01,42,10.10
2017,10,28,01,43,10.10
2017,10,28,01,44,10.10
2017,10,28,01,45,10.00
2017,10,28,01,46,10.00
2017,10,28,01,47,10.00
2017,10,28,01,48,9.90
2017,10,28,01,49,9.90
2017,10,28,01,50,9.90
2017,10,28,01,51,9.90
2017,10,28,01,52,9.90
2017,10,28,01,53,9.80
2017,10,28,01,54,9.80
2017,10,28,01,55,9.80
2017,10,28,01,56,9.80
2017,10,28,01,57,9.70
2017,10,28,01,58,9.60
2017,10,28,01,59,9.60
2017,10,28,02,00,9.50
2017,10,28,02,01,9.50
2017,10,28,02,02,9.50
2017,10,28,02,03,9.50
2017,10,28,02,04,9.60
2017,10,28,02,05,9.60
2017,10,28,02,06,9.60
2017,10,28,02,07,9.60
2017,10,28,02,08,9.70
2017,10,28,02,09,9.70
2017,10,28,02,10,9.80
2017,10,28,02,11,9.90
2017,10,28,02,12,10.00
2017,10,28,02,13,10.10
2017,10,28,02,14,10.30
2017,10,28,02,15,10.40
2017,10,28,02,16,10.40
2017,10,28,02,17,10.40
2017,10,28,02,18,10.40
2017,10,28,02,19,10.50
2017,10,28,02,20,10.50
2017,10,28,02,21,10.60
2017,10,28,02,22,10.60
2017,10,28,02,23,10.70
2017,10,28,02,24,10.80
2017,10,28,02,25,10.80
2017,10,28,02,26,10.80
2017,10,28,02,27,10.80
2017,10,28,02,28,10.80
2017,10,28,02,29,10.70
2017,10,28,02,30,10.60
2017,10,28,02,31,10.60
2017,10,28,02,32,10.50
2017,10,28,02,33,10.40
2017,10,28,02,34,10.40
2017,10,28,02,35,10.40
2017,10,28,02,36,10.30
2017,10,28,02,37,10.40
2017,10,28,02,38,10.40
2017,10,28,02,39,10.40
2017,10,28,02,40,10.40
2017,10,28,02,41,10.40
2017,10,28,02,42,10.50
2017,10,28,02,43,10.50
2017,10,28,02,44,10.50
2017,10,28,02,45,10.50
2017,10,28,02,46,10.50
2017,10,28,02,47,10.40
2017,10,28,02,48,10.40
2017,10,28,02,49,10.40
2017,10,28,02,50,10.40
2017,10,28,02,51,10.40
2017,10,28,02,52,10.40
2017,10,28,02,53,10.40
2017,10,28,02,54,10.40
2017,10,28,02,55,10.30
2017,10,28,02,56,10.30
2017,10,28,02,57,10.30
2017,10,28,02,58,10.20
2017,10,28,02,59,10.20
2017,10,28,03,00,10.20
2017,10,28,03,01,10.20
2017,10,28,03,02,10.20
2017,10,28,03,03,10.20
2017,10,28,03,04,10.20
2017,10,28,03,05,10.20
2017,10,28,03,06,10.10
2017,10,28,03,07,10.10
2017,10,28,03,08,10.10
2017,10,28,03,09,10.00
2017,10,28,03,10,10.00
2017,10,28,03,11,10.00
2017,10,28,03,12,9.90
2017,10,28,03,13,9.90
2017,10,28,03,14,9.80
2017,10,28,03,15,9.80
2017,10,28,03,16,9.80
2017,10,28,03,17,9.90
2017,10,28,03,18,9.90
2017,10,28,03,19,9.90
2017,10,28,03,20,9.90
2017,10,28,03,21,9.90
2017,10,28,03,22,9.90
2017,10,28,03,23,10.00
2017,10,28,03,24,10.10
2017,10,28,03,25,10.20
2017,10,28,03,26,10.30
2017,10,28,03,27,10.30
2017,10,28,03,28,10.40
2017,10,28,03,29,10.40
2017,10,28,03,30,10.40
2017,10,28,03,31,10.50
2017,10,28,03,32,10.50
2017,10,28,03,33,10.60
2017,10,28,03,34,10.70
2017,10,28,03,35,10.70
2017,10,28,03,36,10.80
2017,10,28,03,37,10.80
2017,10,28,03,38,10.80
2017,10,28,03,39,10.90
2017,10,28,03,40,10.90
2017,10,28,03,41,10.90
2017,10,28,03,42,11.00
2017,10,28,03,43,11.10
2017,10,28,03,44,11.10
2017,10,28,03,45,11.10
2017,10,28,03,46,11.10
2017,10,28,03,47,11.10
2017,10,28,03,48,11.00
2017,10,28,03,49,10.90
2017,10,28,03,50,10.80
2017,10,28,03,51,10.70
2017,10,28,03,52,10.50
2017,10,28,03,53,10.40
2017,10,28,03,54,10.30
2017,10,28,03,55,10.30
2017,10,28,03,56,10.40
2017,10,28,03,57,10.40
2017,10,28,03,58,10.40
2017,10,28,03,59,10.40
2017,10,28,04,00,10.40
2017,10,28,04,01,10.40
2017,10,28,04,02,10.50
2017,10,28,04,03,10.60
2017,10,28,04,04,10.60
2017,10,28,04,05,10.50
2017,10,28,04,06,10.30
2017,10,28,04,07,10.10
2017,10,28,04,08,10.00
2017,10,28,04,09,9.80
2017,10,28,04,10,9.70
2017,10,28,04,11,9.70
2017,10,28,04,12,9.70
2017,10,28,04,13,9.70
2017,10,28,04,14,9.80
2017,10,28,04,15,9.80
2017,10,28,04,16,9.80
2017,10,28,04,17,9.90
2017,10,28,04,18,9.90
2017,10,28,04,19,9.90
2017,10,28,04,20,9.80
2017,10,28,04,21,9.80
2017,10,28,04,22,9.90
2017,10,28,04,23,10.00
2017,10,28,04,24,10.10
2017,10,28,04,25,10.20
2017,10,28,04,26,10.30
2017,10,28,04,27,10.30
2017,10,28,04,28,10.40
2017,10,28,04,29,10.30
2017,10,28,04,30,10.30
2017,10,28,04,31,10.20
2017,10,28,04,32,10.10
2017,10,28,04,33,10.00
2017,10,28,04,34,9.90
2017,10,28,04,35,9.90
2017,10,28,04,36,9.80
2017,10,28,04,37,9.80
2017,10,28,04,38,9.80
2017,10,28,04,39,9.70
2017,10,28,04,40,9.70
2017,10,28,04,41,9.50
2017,10,28,04,42,9.40
2017,10,28,04,43,9.30
2017,10,28,04,44,9.30
2017,10,28,04,45,9.20
2017,10,28,04,46,9.20
2017,10,28,04,47,9.10
2017,10,28,04,48,9.10
2017,10,28,04,49,9.10
2017,10,28,04,50,9.00
2017,10,28,04,51,9.00
2017,10,28,04,52,8.90
2017,10,28,04,53,8.90
2017,10,28,04,54,8.90
2017,10,28,04,55,8.90
2017,10,28,04,56,8.80
2017,10,28,04,57,8.80
2017,10,28,04,58,8.80
2017,10,28,04,59,8.80
2017,10,28,05,00,8.90
2017,10,28,05,01,8.90
2017,10,28,05,02,9.00
2017,10,28,05,03,9.10
2017,10,28,05,04,9.20
2017,10,28,05,05,9.30
2017,10,28,05,06,9.40
2017,10,28,05,07,9.50
2017,10,28,05,08,9.60
2017,10,28,05,09,9.60
2017,10,28,05,10,9.60
2017,10,28,05,11,9.70
2017,10,28,05,12,9.70
2017,10,28,05,13,9.70
2017,10,28,05,14,9.70
2017,10,28,05,15,9.70
2017,10,28,05,16,9.80
2017,10,28,05,17,9.90
2017,10,28,05,18,10.00
2017,10,28,05,19,10.00
2017,10,28,05,20,10.10
2017,10,28,05,21,10.10
2017,10,28,05,22,10.00
2017,10,28,05,23,9.90
2017,10,28,05,24,9.90
2017,10,28,05,25,10.10
2017,10,28,05,26,10.20
2017,10,28,05,27,10.30
2017,10,28,05,28,10.40
2017,10,28,05,29,10.50
2017,10,28,05,30,10.70
2017,10,28,05,31,10.80
2017,10,28,05,32,10.90
2017,10,28,05,33,11.00
2017,10,28,05,34,11.20
2017,10,28,05,35,11.20
2017,10,28,05,36,11.30
2017,10,28,05,37,11.30
2017,10,28,05,38,11.30
2017,10,28,05,39,11.30
2017,10,28,05,40,11.30
2017,10,28,05,41,11.30
2017,10,28,05,42,11.30
2017,10,28,05,43,11.30
2017,10,28,05,44,11.20
2017,10,28,05,45,11.10
2017,10,28,05,46,11.10
2017,10,28,05,47,11.20
2017,10,28,05,48,11.30
2017,10,28,05,49,11.30
2017,10,28,05,50,11.30
2017,10,28,05,51,11.30
2017,10,28,05,52,11.20
2017,10,28,05,53,11.00
2017,10,28,05,54,11.00
2017,10,28,05,55,10.90
2017,10,28,05,56,10.90
2017,10,28,05,57,10.90
2017,10,28,05,58,10.80
2017,10,28,05,59,10.70
2017,10,28,06,00,10.60
2017,10,28,06,01,10.60
2017,10,28,06,02,10.60
2017,10,28,06,03,10.50
2017,10,28,06,04,10.50
2017,10,28,06,05,10.50
2017,10,28,06,06,10.50
2017,10,28,06,07,10.50
2017,10,28,06,08,10.50
2017,10,28,06,09,10.40
2017,10,28,06,10,10.30
2017,10,28,06,11,10.30
2017,10,28,06,12,10.20
2017,10,28,06,13,10.20
2017,10,28,06,14,10.20
2017,10,28,06,15,10.20
2017,10,28,06,16,10.20
2017,10,28,06,17,10.20
2017,10,28,06,18,10.20
2017,10,28,06,19,10.30
2017,10,28,06,20,10.30
2017,10,28,06,21,10.30
2017,10,28,06,22,10.30
2017,10,28,06,23,10.30
2017,10,28,06,24,10.30
2017,10,28,06,25,10.30
2017,10,28,06,26,10.20
2017,10,28,06,27,10.20
2017,10,28,06,28,10.10
2017,10,28,06,29,10.00
2017,10,28,06,30,9.90
2017,10,28,06,31,9.80
2017,10,28,06,32,9.70
2017,10,28,06,33,9.60
2017,10,28,06,34,9.50
2017,10,28,06,35,9.40
2017,10,28,06,36,9.30
2017,10,28,06,37,9.20
2017,10,28,06,38,9.20
2017,10,28,06,39,9.10
2017,10,28,06,40,9.10
2017,10,28,06,41,9.00
2017,10,28,06,42,8.90
2017,10,28,06,43,8.90
2017,10,28,06,44,8.80
2017,10,28,06,45,8.70
2017,10,28,06,46,8.70
2017,10,28,06,47,8.60
2017,10,28,06,48,8.60
2017,10,28,06,49,8.50
2017,10,28,06,50,8.50
2017,10,28,06,51,8.50
2017,10,28,06,52,8.40
2017,10,28,06,53,8.40
2017,10,28,06,54,8.40
2017,10,28,06,55,8.40
2017,10,28,06,56,8.30
2017,10,28,06,57,8.30
2017,10,28,06,58,8.30
2017,10,28,06,59,8.30
2017,10,28,07,00,8.40
2017,10,28,07,01,8.40
2017,10,28,07,02,8.50
2017,10,28,07,03,8.50
2017,10,28,07,04,8.60
2017,10,28,07,05,8.70
2017,10,28,07,06,8.70
2017,10,28,07,07,8.80
2017,10,28,07,08,8.80
2017,10,28,07,09,8.80
2017,10,28,07,10,8.80
2017,10,28,07,11,8.80
2017,10,28,07,12,8.80
2017,10,28,07,13,8.80
2017,10,28,07,14,8.80
2017,10,28,07,15,8.80
2017,10,28,07,16,8.80
2017,10,28,07,17,8.80
2017,10,28,07,18,8.80
2017,10,28,07,19,8.80
2017,10,28,07,20,8.70
2017,10,28,07,21,8.70
2017,10,28,07,22,8.70
2017,10,28,07,23,8.70
2017,10,28,07,24,8.60
2017,10,28,07,25,8.60
2017,10,28,07,26,8.50
2017,10,28,07,27,8.50
2017,10,28,07,28,8.40
2017,10,28,07,29,8.40
2017,10,28,07,30,8.40
2017,10,28,07,31,8.40
2017,10,28,07,32,8.40
2017,10,28,07,33,8.40
2017,10,28,07,34,8.40
2017,10,28,07,35,8.50
2017,10,28,07,36,8.60
2017,10,28,07,37,8.70
2017,10,28,07,38,8.70
2017,10,28,07,39,8.80
2017,10,28,07,40,8.90
2017,10,28,07,41,9.00
2017,10,28,07,42,9.10
2017,10,28,07,43,9.20
2017,10,28,07,44,9.20
2017,10,28,07,45,9.30
2017,10,28,07,46,9.30
2017,10,28,07,47,9.30
2017,10,28,07,48,9.30
2017,10,28,07,49,9.40
2017,10,28,07,50,9.40
2017,10,28,07,51,9.30
2017,10,28,07,52,9.30
2017,10,28,07,53,9.30
2017,10,28,07,54,9.30
2017,10,28,07,55,9.30
2017,10,28,07,56,9.30
2017,10,28,07,57,9.30
2017,10,28,07,58,9.30
2017,10,28,07,59,9.20
2017,10,28,08,00,9.20
2017,10,28,08,01,9.20
2017,10,28,08,02,9.20
2017,10,28,08,03,9.20
2017,10,28,08,04,9.20
2017,10,28,08,05,9.10
2017,10,28,08,06,9.10
2017,10,28,08,07,9.10
2017,10,28,08,08,9.10
2017,10,28,08,09,9.10
2017,10,28,08,10,9.10
2017,10,28,08,11,9.10
2017,10,28,08,12,9.10
2017,10,28,08,13,9.10
2017,10,28,08,14,9.10
2017,10,28,08,15,9.10
2017,10,28,08,16,9.10
2017,10,28,08,17,9.20
2017,10,28,08,18,9.20
2017,10,28,08,19,9.30
2017,10,28,08,20,9.30
2017,10,28,08,21,9.30
2017,10,28,08,22,9.40
2017,10,28,08,23,9.40
2017,10,28,08,24,9.40
2017,10,28,08,25,9.50
2017,10,28,08,26,9.60
2017,10,28,08,27,9.60
2017,10,28,08,28,9.70
2017,10,28,08,29,9.70
2017,10,28,08,30,9.70
2017,10,28,08,31,9.70
2017,10,28,08,32,9.60
2017,10,28,08,33,9.60
2017,10,28,08,34,9.70
2017,10,28,08,35,9.70
2017,10,28,08,36,9.70
2017,10,28,08,37,9.70
2017,10,28,08,38,9.80
2017,10,28,08,39,9.80
2017,10,28,08,40,9.80
2017,10,28,08,41,9.80
2017,10,28,08,42,9.80
2017,10,28,08,43,9.80
2017,10,28,08,44,9.80
2017,10,28,08,45,9.80
2017,10,28,08,46,9.90
2017,10,28,08,47,9.90
2017,10,28,08,48,9.90
2017,10,28,08,49,9.90
2017,10,28,08,50,10.00
2017,10,28,08,51,10.00
2017,10,28,08,52,10.00
2017,10,28,08,53,10.10
2017,10,28,08,54,10.10
2017,10,28,08,55,10.20
2017,10,28,08,56,10.20
2017,10,28,08,57,10.30
2017,10,28,08,58,10.30
2017,10,28,08,59,10.40
2017,10,28,09,00,10.40
2017,10,28,09,01,10.50
2017,10,28,09,02,10.60
2017,10,28,09,03,10.70
2017,10,28,09,04,10.70
2017,10,28,09,05,10.80
2017,10,28,09,06,10.80
2017,10,28,09,07,10.80
2017,10,28,09,08,10.80
2017,10,28,09,09,10.80
2017,10,28,09,10,10.80
2017,10,28,09,11,10.70
2017,10,28,09,12,10.70
2017,10,28,09,13,10.70
2017,10,28,09,14,10.70
2017,10,28,09,15,10.60
2017,10,28,09,16,10.60
2017,10,28,09,17,10.60
2017,10,28,09,18,10.70
2017,10,28,09,19,10.70
2017,10,28,09,20,10.80
2017,10,28,09,21,10.90
2017,10,28,09,22,11.00
2017,10,28,09,23,11.10
2017,10,28,09,24,11.20
2017,10,28,09,25,11.30
2017,10,28,09,26,11.30
2017,10,28,09,27,11.30
2017,10,28,09,28,11.30
2017,10,28,09,29,11.40
2017,10,28,09,30,11.50
2017,10,28,09,31,11.50
2017,10,28,09,32,11.60
2017,10,28,09,33,11.70
2017,10,28,09,34,11.70
2017,10,28,09,35,11.80
2017,10,28,09,36,11.90
2017,10,28,09,37,11.90
2017,10,28,09,38,11.90
2017,10,28,09,39,11.90
2017,10,28,09,40,11.90
2017,10,28,09,41,12.00
2017,10,28,09,42,12.00
2017,10,28,09,43,12.00
2017,10,28,09,44,12.00
2017,10,28,09,45,12.00
2017,10,28,09,46,12.00
2017,10,28,09,47,12.10
2017,10,28,09,48,12.10
2017,10,28,09,49,12.10
2017,10,28,09,50,12.10
2017,10,28,09,51,12.10
2017,10,28,09,52,12.10
2017,10,28,09,53,12.10
2017,10,28,09,54,12.10
2017,10,28,09,55,12.20
2017,10,28,09,56,12.20
2017,10,28,09,57,12.20
2017,10,28,09,58,12.20
2017,10,28,09,59,12.20
2017,10,28,10,00,12.20
2017,10,28,10,01,12.20
2017,10,28,10,02,12.20
2017,10,28,10,03,12.20
2017,10,28,10,04,12.20
2017,10,28,10,05,12.30
2017,10,28,10,06,12.30
2017,10,28,10,07,12.30
2017,10,28,10,08,12.30
2017,10,28,10,09,12.30
2017,10,28,10,10,12.30
2017,10,28,10,11,12.30
2017,10,28,10,12,12.30
2017,10,28,10,13,12.30
2017,10,28,10,14,12.30
2017,10,28,10,15,12.30
2017,10,28,10,16,12.30
2017,10,28,10,17,12.40
2017,10,28,10,18,12.40
2017,10,28,10,19,12.40
2017,10,28,10,20,12.50
2017,10,28,10,21,12.50
2017,10,28,10,22,12.60
2017,10,28,10,23,12.60
2017,10,28,10,24,12.70
2017,10,28,10,25,12.70
2017,10,28,10,26,12.80
2017,10,28,10,27,12.90
2017,10,28,10,28,12.90
2017,10,28,10,29,13.00
2017,10,28,10,30,13.10
2017,10,28,10,31,13.20
2017,10,28,10,32,13.20
2017,10,28,10,33,13.20
2017,10,28,10,34,13.20
2017,10,28,10,35,13.20
2017,10,28,10,36,13.20
2017,10,28,10,37,13.20
2017,10,28,10,38,13.20
2017,10,28,10,39,13.20
2017,10,28,10,40,13.20
2017,10,28,10,41,13.30
2017,10,28,10,42,13.30
2017,10,28,10,43,13.30
2017,10,28,10,44,13.20
2017,10,28,10,45,13.20
2017,10,28,10,46,13.30
2017,10,28,10,47,13.30
2017,10,28,10,48,13.30
2017,10,28,10,49,13.30
2017,10,28,10,50,13.30
2017,10,28,10,51,13.30
2017,10,28,10,52,13.20
2017,10,28,10,53,13.20
2017,10,28,10,54,13.20
2017,10,28,10,55,13.20
2017,10,28,10,56,13.20
2017,10,28,10,57,13.30
2017,10,28,10,58,13.30
2017,10,28,10,59,13.30
2017,10,28,11,00,13.30
2017,10,28,11,01,13.30
2017,10,28,11,02,13.40
2017,10,28,11,03,13.40
2017,10,28,11,04,13.40
2017,10,28,11,05,13.40
2017,10,28,11,06,13.30
2017,10,28,11,07,13.30
2017,10,28,11,08,13.30
2017,10,28,11,09,13.30
2017,10,28,11,10,13.20
2017,10,28,11,11,13.20
2017,10,28,11,12,13.30
2017,10,28,11,13,13.30
2017,10,28,11,14,13.30
2017,10,28,11,15,13.30
2017,10,28,11,16,13.30
2017,10,28,11,17,13.40
2017,10,28,11,18,13.40
2017,10,28,11,19,13.40
2017,10,28,11,20,13.50
2017,10,28,11,21,13.60
2017,10,28,11,22,13.60
2017,10,28,11,23,13.70
2017,10,28,11,24,13.70
2017,10,28,11,25,13.80
2017,10,28,11,26,13.80
2017,10,28,11,27,13.80
2017,10,28,11,28,13.90
2017,10,28,11,29,13.90
2017,10,28,11,30,14.00
2017,10,28,11,31,14.00
2017,10,28,11,32,14.00
2017,10,28,11,33,14.10
2017,10,28,11,34,14.10
2017,10,28,11,35,14.20
2017,10,28,11,36,14.30
2017,10,28,11,37,14.30
2017,10,28,11,38,14.30
2017,10,28,11,39,14.40
2017,10,28,11,40,14.40
2017,10,28,11,41,14.40
2017,10,28,11,42,14.40
2017,10,28,11,43,14.40
2017,10,28,11,44,14.40
2017,10,28,11,45,14.40
2017,10,28,11,46,14.40
2017,10,28,11,47,14.50
2017,10,28,11,48,14.50
2017,10,28,11,49,14.50
2017,10,28,11,50,14.60
2017,10,28,11,51,14.60
2017,10,28,11,52,14.60
2017,10,28,11,53,14.70
2017,10,28,11,54,14.70
2017,10,28,11,55,14.70
2017,10,28,11,56,14.80
2017,10,28,11,57,14.80
2017,10,28,11,58,14.80
2017,10,28,11,59,14.80
2017,10,28,12,00,14.80
2017,10,28,12,01,14.90
2017,10,28,12,02,14.90
2017,10,28,12,03,14.90
2017,10,28,12,04,15.00
2017,10,28,12,05,15.00
2017,10,28,12,06,15.10
2017,10,28,12,07,15.10
2017,10,28,12,08,15.10
2017,10,28,12,09,15.20
2017,10,28,12,10,15.20
2017,10,28,12,11,15.20
2017,10,28,12,12,15.20
2017,10,28,12,13,15.30
2017,10,28,12,14,15.30
2017,10,28,12,15,15.40
2017,10,28,12,16,15.40
2017,10,28,12,17,15.40
2017,10,28,12,18,15.40
2017,10,28,12,19,15.40
2017,10,28,12,20,15.40
2017,10,28,12,21,15.50
2017,10,28,12,22,15.50
2017,10,28,12,23,15.50
2017,10,28,12,24,15.50
2017,10,28,12,25,15.60
2017,10,28,12,26,15.60
2017,10,28,12,27,15.70
2017,10,28,12,28,15.70
2017,10,28,12,29,15.70
2017,10,28,12,30,15.80
2017,10,28,12,31,15.80
2017,10,28,12,32,15.80
2017,10,28,12,33,15.80
2017,10,28,12,34,15.90
2017,10,28,12,35,15.90
2017,10,28,12,36,16.00
2017,10,28,12,37,16.00
2017,10,28,12,38,16.10
2017,10,28,12,39,16.10
2017,10,28,12,40,16.10
2017,10,28,12,41,16.20
2017,10,28,12,42,16.20
2017,10,28,12,43,16.20
2017,10,28,12,44,16.30
2017,10,28,12,45,16.30
2017,10,28,12,46,16.40
2017,10,28,12,47,16.30
2017,10,28,12,48,16.20
2017,10,28,12,49,16.00
2017,10,28,12,50,15.90
2017,10,28,12,51,15.70
2017,10,28,12,52,15.60
2017,10,28,12,53,15.40
2017,10,28,12,54,15.30
2017,10,28,12,55,15.20
2017,10,28,12,56,15.20
2017,10,28,12,57,15.10
2017,10,28,12,58,15.10
2017,10,28,12,59,15.10
2017,10,28,13,00,15.10
2017,10,28,13,01,15.10
2017,10,28,13,02,15.10
2017,10,28,13,03,15.10
2017,10,28,13,04,15.10
2017,10,28,13,05,15.10
2017,10,28,13,06,15.20
2017,10,28,13,07,15.20
2017,10,28,13,08,15.20
2017,10,28,13,09,15.20
2017,10,28,13,10,15.20
2017,10,28,13,11,15.20
2017,10,28,13,12,15.30
2017,10,28,13,13,15.30
2017,10,28,13,14,15.30
2017,10,28,13,15,15.30
2017,10,28,13,16,15.30
2017,10,28,13,17,15.30
2017,10,28,13,18,15.40
2017,10,28,13,19,15.30
2017,10,28,13,20,15.30
2017,10,28,13,21,15.40
2017,10,28,13,22,15.40
2017,10,28,13,23,15.40
2017,10,28,13,24,15.40
2017,10,28,13,25,15.40
2017,10,28,13,26,15.50
2017,10,28,13,27,15.50
2017,10,28,13,28,15.60
2017,10,28,13,29,15.60
2017,10,28,13,30,15.60
2017,10,28,13,31,15.60
2017,10,28,13,32,15.70
2017,10,28,13,33,15.80
2017,10,28,13,34,15.80
2017,10,28,13,35,15.80
2017,10,28,13,36,15.90
2017,10,28,13,37,15.90
2017,10,28,13,38,16.00
2017,10,28,13,39,16.00
2017,10,28,13,40,16.10
2017,10,28,13,41,16.20
2017,10,28,13,42,16.20
2017,10,28,13,43,16.20
2017,10,28,13,44,16.10
2017,10,28,13,45,16.00
2017,10,28,13,46,15.90
2017,10,28,13,47,15.70
2017,10,28,13,48,15.50
2017,10,28,13,49,15.30
2017,10,28,13,50,15.20
2017,10,28,13,51,15.00
2017,10,28,13,52,14.90
2017,10,28,13,53,14.80
2017,10,28,13,54,14.80
2017,10,28,13,55,14.80
2017,10,28,13,56,14.70
2017,10,28,13,57,14.70
2017,10,28,13,58,14.70
2017,10,28,13,59,14.60
2017,10,28,14,00,14.60
2017,10,28,14,01,14.60
2017,10,28,14,02,14.60
2017,10,28,14,03,14.60
2017,10,28,14,04,14.60
2017,10,28,14,05,14.60
2017,10,28,14,06,14.50
2017,10,28,14,07,14.50
2017,10,28,14,08,14.50
2017,10,28,14,09,14.50
2017,10,28,14,10,14.50
2017,10,28,14,11,14.50
2017,10,28,14,12,14.50
2017,10,28,14,13,14.50
2017,10,28,14,14,14.50
2017,10,28,14,15,14.50
2017,10,28,14,16,14.60
2017,10,28,14,17,14.60
2017,10,28,14,18,14.60
2017,10,28,14,19,14.70
2017,10,28,14,20,14.70
2017,10,28,14,21,14.70
2017,10,28,14,22,14.80
2017,10,28,14,23,14.80
2017,10,28,14,24,14.80
2017,10,28,14,25,14.90
2017,10,28,14,26,14.90
2017,10,28,14,27,14.90
2017,10,28,14,28,14.90
2017,10,28,14,29,15.00
2017,10,28,14,30,15.00
2017,10,28,14,31,15.00
2017,10,28,14,32,15.10
2017,10,28,14,33,15.10
2017,10,28,14,34,15.10
2017,10,28,14,35,15.00
2017,10,28,14,36,14.90
2017,10,28,14,37,14.90
2017,10,28,14,38,14.80
2017,10,28,14,39,14.80
2017,10,28,14,40,14.80
2017,10,28,14,41,14.70
2017,10,28,14,42,14.70
2017,10,28,14,43,14.70
2017,10,28,14,44,14.60
2017,10,28,14,45,14.60
2017,10,28,14,46,14.60
2017,10,28,14,47,14.60
2017,10,28,14,48,14.60
2017,10,28,14,49,14.60
2017,10,28,14,50,14.60
2017,10,28,14,51,14.60
2017,10,28,14,52,14.60
2017,10,28,14,53,14.60
2017,10,28,14,54,14.60
2017,10,28,14,55,14.60
2017,10,28,14,56,14.60
2017,10,28,14,57,14.60
2017,10,28,14,58,14.60
2017,10,28,14,59,14.60
2017,10,28,15,00,14.60
2017,10,28,15,01,14.60
2017,10,28,15,02,14.60
2017,10,28,15,03,14.60
2017,10,28,15,04,14.60
2017,10,28,15,05,14.70
2017,10,28,15,06,14.70
2017,10,28,15,07,14.80
2017,10,28,15,08,14.80
2017,10,28,15,09,14.80
2017,10,28,15,10,14.80
2017,10,28,15,11,14.90
2017,10,28,15,12,14.90
2017,10,28,15,13,14.90
2017,10,28,15,14,15.00
2017,10,28,15,15,15.00
2017,10,28,15,16,15.00
2017,10,28,15,17,15.10
2017,10,28,15,18,15.10
2017,10,28,15,19,15.10
2017,10,28,15,20,15.10
2017,10,28,15,21,15.10
2017,10,28,15,22,15.10
2017,10,28,15,23,15.10
2017,10,28,15,24,15.10
2017,10,28,15,25,15.10
2017,10,28,15,26,15.10
2017,10,28,15,27,15.20
2017,10,28,15,28,15.20
2017,10,28,15,29,15.20
2017,10,28,15,30,15.20
2017,10,28,15,31,15.20
2017,10,28,15,32,15.30
2017,10,28,15,33,15.30
2017,10,28,15,34,15.30
2017,10,28,15,35,15.30
2017,10,28,15,36,15.30
2017,10,28,15,37,15.30
2017,10,28,15,38,15.30
2017,10,28,15,39,15.30
2017,10,28,15,40,15.30
2017,10,28,15,41,15.30
2017,10,28,15,42,15.30
2017,10,28,15,43,15.30
2017,10,28,15,44,15.30
2017,10,28,15,45,15.30
2017,10,28,15,46,15.30
2017,10,28,15,47,15.30
2017,10,28,15,48,15.20
2017,10,28,15,49,15.20
2017,10,28,15,50,15.20
2017,10,28,15,51,15.20
2017,10,28,15,52,15.20
2017,10,28,15,53,15.20
2017,10,28,15,54,15.20
2017,10,28,15,55,15.20
2017,10,28,15,56,15.20
2017,10,28,15,57,15.10
2017,10,28,15,58,15.10
2017,10,28,15,59,15.10
2017,10,28,16,00,15.10
2017,10,28,16,01,15.00
2017,10,28,16,02,15.00
2017,10,28,16,03,15.00
2017,10,28,16,04,14.90
2017,10,28,16,05,14.90
2017,10,28,16,06,14.90
2017,10,28,16,07,14.80
2017,10,28,16,08,14.80
2017,10,28,16,09,14.80
2017,10,28,16,10,14.70
2017,10,28,16,11,14.70
2017,10,28,16,12,14.60
2017,10,28,16,13,14.60
2017,10,28,16,14,14.60
2017,10,28,16,15,14.50
2017,10,28,16,16,14.50
2017,10,28,16,17,14.50
2017,10,28,16,18,14.40
2017,10,28,16,19,14.40
2017,10,28,16,20,14.40
2017,10,28,16,21,14.40
2017,10,28,16,22,14.40
2017,10,28,16,23,14.40
2017,10,28,16,24,14.40
2017,10,28,16,25,14.40
2017,10,28,16,26,14.50
2017,10,28,16,27,14.50
2017,10,28,16,28,14.50
2017,10,28,16,29,14.50
2017,10,28,16,30,14.50
2017,10,28,16,31,14.50
2017,10,28,16,32,14.50
2017,10,28,16,33,14.60
2017,10,28,16,34,14.60
2017,10,28,16,35,14.60
2017,10,28,16,36,14.60
2017,10,28,16,37,14.60
2017,10,28,16,38,14.60
2017,10,28,16,39,14.60
2017,10,28,16,40,14.60
2017,10,28,16,41,14.60
2017,10,28,16,42,14.60
2017,10,28,16,43,14.50
2017,10,28,16,44,14.50
2017,10,28,16,45,14.40
2017,10,28,16,46,14.40
2017,10,28,16,47,14.40
2017,10,28,16,48,14.30
2017,10,28,16,49,14.30
2017,10,28,16,50,14.30
2017,10,28,16,51,14.20
2017,10,28,16,52,14.20
2017,10,28,16,53,14.20
2017,10,28,16,54,14.10
2017,10,28,16,55,14.10
2017,10,28,16,56,14.10
2017,10,28,16,57,14.10
2017,10,28,16,58,14.10
2017,10,28,16,59,14.10
2017,10,28,17,00,14.10
2017,10,28,17,01,14.10
2017,10,28,17,02,14.00
2017,10,28,17,03,14.00
2017,10,28,17,04,14.00
2017,10,28,17,05,14.00
2017,10,28,17,06,13.90
2017,10,28,17,07,13.90
2017,10,28,17,08,13.90
2017,10,28,17,09,13.80
2017,10,28,17,10,13.80
2017,10,28,17,11,13.80
2017,10,28,17,12,13.80
2017,10,28,17,13,13.70
2017,10,28,17,14,13.70
2017,10,28,17,15,13.60
2017,10,28,17,16,13.60
2017,10,28,17,17,13.50
2017,10,28,17,18,13.40
2017,10,28,17,19,13.40
2017,10,28,17,20,13.30
2017,10,28,17,21,13.30
2017,10,28,17,22,13.30
2017,10,28,17,23,13.20
2017,10,28,17,24,13.20
2017,10,28,17,25,13.20
2017,10,28,17,26,13.20
2017,10,28,17,27,13.10
2017,10,28,17,28,13.10
2017,10,28,17,29,13.10